EW5385 Weather Reports


Display with metric or nautical units.
time (UTC)temp
F
wind
direction
speed
MPH
gust
MPH
rain 1hr
in
rain 24hr
in
rain mn
in
humidity
%
barometer
mb
20260505013035 76 274 0.0 0.0 0.00 0.00 0.00 69 1012.6
20260505011534 76 143 0.0 0.0 0.00 0.00 0.00 69 1012.9
20260505010026 76 165 0.0 0.0 0.00 0.00 0.00 68 1013.3
20260505004540 75 261 0.0 0.0 0.00 0.00 0.00 62 1013.5
20260505003017 73 164 0.0 0.0 0.00 0.00 0.00 59 1013.7
20260505001513 73 219 0.0 0.0 0.00 0.00 0.00 55 1013.9
20260505000013 72 157 0.0 0.0 0.00 0.00 0.00 46 1013.9
20260504234508 71 280 0.0 0.0 0.00 0.00 0.00 26 1014.0
20260504233101 71 224 0.0 0.0 0.00 0.00 0.00 1 1014.2
20260504231555 69 245 0.0 0.0 0.00 0.00 0.00 1 1014.3
20260504230104 68 223 0.0 0.0 0.00 0.00 0.00 1 1014.3
20260504224546 67 257 0.0 6.0 0.00 0.00 0.00 1 1014.3
20260504223042 66 200 0.0 0.0 0.00 0.00 0.00 1 1014.2
20260504221549 65 238 0.0 1.0 0.00 0.00 0.00 1 1014.4
20260504220032 65 229 0.0 0.0 0.00 0.00 0.00 1 1014.2
20260504214528 64 231 0.0 0.0 0.00 0.00 0.00 1 1014.1
20260504213023 63 223 0.0 0.0 0.00 0.00 0.00 1 1014.1
20260504211519 63 219 0.0 0.0 0.00 0.00 0.00 1 1014.0
20260504210018 62 223 0.0 0.0 0.00 0.00 0.00 1 1013.9
20260504204509 62 251 0.0 0.0 0.00 0.00 0.00 1 1013.7
20260504203007 0 0.0 0.0 0.00 0.00 0.00 1013.6
20260504201602 0 0.0 0.0 0.00 0.00 0.00 1013.5
20260504200055 0 0.0 0.0 0.00 0.00 0.00 1013.4
20260504194551 0 0.0 0.0 0.00 0.00 0.00 1013.1
20260504193047 0 0.0 0.0 0.00 0.00 0.00 1012.9
20260504191543 0 0.0 0.0 0.00 0.00 0.00 1012.8
20260504190038 0 0.0 0.0 0.00 0.00 0.00 1012.7
20260504184534 0 0.0 0.0 0.00 0.00 0.00 1012.6
20260504183029 0 0.0 0.0 0.00 0.00 0.00 1012.7
20260504181529 0 0.0 0.0 0.00 0.00 0.00 1012.5
20260504180021 0 0.0 0.0 0.00 0.00 0.00 1012.4
20260504174516 0 0.0 0.0 0.00 0.00 0.00 1012.4
20260504173011 0 0.0 0.0 0.00 0.00 0.00 1012.5
20260504171507 0 0.0 0.0 0.00 0.00 0.00 1012.5
20260504100103 69 88 0.0 0.0 0.00 0.00 0.00 1 1014.4
20260504081537 71 96 0.0 0.0 0.00 0.00 0.00 21 1013.4
20260504044530 77 97 1.0 9.0 0.00 0.00 0.00 69 1012.3
20260504043025 76 96 0.0 4.0 0.00 0.00 0.00 68 1012.2
20260504041520 76 101 0.0 0.0 0.00 0.00 0.00 69 1012.3
20260504040018 76 96 0.0 0.0 0.00 0.00 0.00 69 1012.3
20260504034510 76 78 0.0 0.0 0.00 0.00 0.00 69 1012.4
20260504033008 76 91 0.0 10.0 0.00 0.00 0.00 68 1012.4
20260504031505 76 93 0.0 0.0 0.00 0.00 0.00 69 1012.6
20260504030058 76 85 0.0 0.0 0.00 0.00 0.00 69 1012.7
20260504024608 77 117 0.0 5.0 0.00 0.00 0.00 68 1012.9
20260504023049 77 105 0.0 7.0 0.00 0.00 0.00 68 1013.1
20260504021545 76 98 0.0 0.0 0.00 0.00 0.00 69 1013.4
20260504020043 76 138 0.0 7.0 0.00 0.00 0.00 69 1013.6
20260504014534 76 93 1.0 5.0 0.00 0.00 0.00 69 1013.9